• MPC Preparation (Info)

  • MPEC 2004-J51 : 2004 JQ1

    The following Minor Planet Electronic Circular may be linked-to from your own Web pages, but must not otherwise be redistributed electronically.

    A form allowing access to any MPEC is at the bottom of this page.


    Read MPEC 2004-J50 Read MPEC 2004-J52


    M.P.E.C. 2004-J51                                Issued 2004 May 12, 17:38 UT
    
         The Minor Planet Electronic Circulars contain information on unusual
             minor planets and routine data on comets.  They are published
       on behalf of Commission 20 of the International Astronomical Union by the
              Minor Planet Center, Smithsonian Astrophysical Observatory,
                              Cambridge, MA 02138, U.S.A.
    
             Supported in part by the Steven and Michele Kirsch Foundation
                 Prepared using the Tamkin Foundation Computer Network
    
                                  MPC@CFA.HARVARD.EDU
              URL http://cfa-www.harvard.edu/iau/mpc.html  ISSN 1523-6714
    
                                       2004 JQ1
    
    Observations:
         K04J01Q* C2004 05 11.30001 16 16 33.86 +39 54 05.8          20.4   EJ051704
         K04J01Q  C2004 05 11.30936 16 16 31.36 +39 54 17.6          19.9   EJ051704
         K04J01Q  C2004 05 11.31880 16 16 29.23 +39 54 24.5          19.8   EJ051704
         K04J01Q  C2004 05 11.32813 16 16 26.87 +39 54 33.6          19.7   EJ051704
         K04J01Q  C2004 05 11.96317 16 13 56.04 +40 03 43.4                 EJ051246
         K04J01Q  C2004 05 11.96403 16 13 55.84 +40 03 44.2                 EJ051246
         K04J01Q  C2004 05 11.96524 16 13 55.46 +40 03 44.9                 EJ051246
         K04J01Q  C2004 05 11.96612 16 13 55.28 +40 03 45.9                 EJ051246
         K04J01Q  C2004 05 11.96691 16 13 55.08 +40 03 46.6                 EJ051246
         K04J01Q  C2004 05 11.96854 16 13 54.64 +40 03 48.4                 EJ051246
         K04J01Q 5C2004 05 12.27801 16 12 39.56 +40 08 15.8          19.0 R EJ051673
         K04J01Q 5C2004 05 12.27998 16 12 38.99 +40 08 18.0                 EJ051673
         K04J01Q 5C2004 05 12.28264 16 12 38.21 +40 08 19.9                 EJ051673
         K04J01Q 5C2004 05 12.28495 16 12 37.70 +40 08 21.7                 EJ051673
         K04J01Q  C2004 05 12.34615 16 12 21.81 +40 09 16.1          20.0 R EJ051854
         K04J01Q  C2004 05 12.35270 16 12 20.29 +40 09 21.7          19.5 R EJ051854
         K04J01Q  C2004 05 12.36143 16 12 17.69 +40 09 29.0          20.0 R EJ051854
         K04J01Q  C2004 05 12.37681 16 12 13.88 +40 09 41.4          20.2 R EJ051926
         K04J01Q  C2004 05 12.37800 16 12 13.57 +40 09 42.8          20.0 R EJ051926
         K04J01Q  C2004 05 12.37921 16 12 13.26 +40 09 43.6          20.5 R EJ051926
    
    Observer details:
    246 Klet Observatory-KLENOT.  Observer M. Tichy.  1.06-m KLENOT Telescope
        + CCD.
    673 Table Mountain Observatory, Wrightwood.  Observer J. Young.  0.6-m
        reflector + CCD.
    704 Lincoln Laboratory ETS, New Mexico.  Observers M. Blythe, F. Shelly,
        M. Bezpalko, R. Huber, L. Manguso, D. Torres, R. Kracke, M. McCleary,
        H. Stange, A. Milner.  Measurers J. Stuart, R. Sayer, J. Evans, J. Kommers.
        1.0-m f/2.15 reflector + CCD.
    854 Sabino Canyon Observatory, Tucson.  Observer J. E. McGaha.  0.356-m f/10.0
        Schmidt-Cassegrain + CCD.
    926 Tenagra II Observatory.  Observers P. R. Holvorcem, M. Schwartz.  0.81-m
        f/7 Ritchey-Chretien + CCD.
    
    Orbital elements:
    2004 JQ1                                                             PHA 0.026D
    Epoch 2004 Apr. 25.0 TT = JDT 2453120.5                 MPC
    M 276.84981              (2000.0)            P               Q
    n   0.74855001     Peri.  271.69460     +0.82476097     +0.20376952
    a   1.2013111      Node    76.81651     +0.06602262     +0.89173910
    e   0.4474810      Incl.   32.80422     -0.56161406     +0.40407840
    P   1.32           H   20.1           G   0.15
    From 19 observations 2004 May 11-12.
    
    Ephemeris:
    2004 JQ1                 a,e,i = 1.20, 0.45, 33                  q = 0.6637
    Date    TT    R. A. (2000) Decl.     Delta      r     Elong.  Phase     V
    2004 05 05    16 36.79   +38 08.4    0.462    1.302   120.0    42.1    20.6
    2004 05 15    16 00.49   +40 42.8    0.368    1.237   119.9    45.1    20.1
    2004 05 25    14 56.89   +40 57.1    0.286    1.166   115.9    51.4    19.6
    2004 06 04    13 22.24   +34 47.3    0.223    1.092   104.6    64.0    19.3
    2004 06 14    11 37.54   +18 28.0    0.198    1.016    84.4    84.5    19.6
    2004 06 24    10 11.45   -01 00.2    0.221    0.937    63.0   104.9    20.6
    
    Kyle E. Smalley              (C) Copyright 2004 MPC           M.P.E.C. 2004-J51
    

    Read MPEC 2004-J50 Read MPEC 2004-J52


    MPEC number:

    Enter an MPEC number in one of the following forms:

    • 1997-B01 (the full form)
    • J97B01 (the packed version of the full form)
    • B01 (the abbreviated form)